Time,TemperatureF,DewpointF,PressureIn,WindDirection,WindDirectionDegrees,WindSpeedMPH,WindSpeedGustMPH,Humidity,HourlyPrecipIn,Conditions,Clouds,dailyrainin,SoftwareType,DateUTC
2013-02-11 00:02:00,21.0,13.0,30.31,SSW,203,0.0,0.0,70,0.00,,,0.00,,2013-02-11 05:02:00,
2013-02-11 00:12:00,21.0,13.0,30.31,SSW,203,0.0,0.0,70,0.00,,,0.00,,2013-02-11 05:12:00,
2013-02-11 00:22:00,21.0,13.0,30.31,SSW,203,0.0,0.0,70,0.00,,,0.00,,2013-02-11 05:22:00,
2013-02-11 00:32:00,22.0,14.0,30.30,SSW,203,0.0,0.0,70,0.00,,,0.00,,2013-02-11 05:32:00,
2013-02-11 00:42:00,22.0,14.0,30.30,SSW,203,0.0,0.0,71,0.00,,,0.00,,2013-02-11 05:42:00,
2013-02-11 00:52:00,22.0,14.0,30.30,SSW,203,0.0,0.0,71,0.00,,,0.00,,2013-02-11 05:52:00,
2013-02-11 01:02:00,22.0,14.0,30.30,SSW,203,0.0,0.0,71,0.00,,,0.00,,2013-02-11 06:02:00,
2013-02-11 01:12:00,22.0,14.0,30.30,SSW,203,0.0,0.0,71,0.00,,,0.00,,2013-02-11 06:12:00,
2013-02-11 01:22:00,23.0,15.0,30.30,SSW,203,0.0,0.0,71,0.00,,,0.00,,2013-02-11 06:22:00,
2013-02-11 01:32:00,23.0,15.0,30.29,SSW,203,0.0,0.0,71,0.00,,,0.00,,2013-02-11 06:32:00,
2013-02-11 01:42:00,23.0,15.0,30.28,SSE,158,0.0,0.0,71,0.00,,,0.00,,2013-02-11 06:42:00,
2013-02-11 01:52:00,23.0,15.0,30.28,SSE,158,0.0,0.0,71,0.00,,,0.00,,2013-02-11 06:52:00,
2013-02-11 02:02:00,24.0,16.0,30.27,SSE,158,0.0,0.0,71,0.00,,,0.00,,2013-02-11 07:02:00,
2013-02-11 02:12:00,24.0,17.0,30.27,SE,135,0.0,0.0,73,0.00,,,0.00,,2013-02-11 07:12:00,
2013-02-11 02:22:00,24.0,17.0,30.27,SE,135,0.0,0.0,73,0.00,,,0.00,,2013-02-11 07:22:00,
2013-02-11 02:32:00,25.0,18.0,30.27,SE,135,0.0,0.0,74,0.00,,,0.00,,2013-02-11 07:32:00,
2013-02-11 02:42:00,25.0,18.0,30.26,South,180,0.0,0.0,75,0.00,,,0.00,,2013-02-11 07:42:00,
2013-02-11 02:52:00,25.0,18.0,30.26,South,180,0.0,0.0,75,0.00,,,0.00,,2013-02-11 07:52:00,
2013-02-11 03:01:00,26.0,19.0,30.25,SSE,158,3.0,3.0,76,0.00,,,0.00,,2013-02-11 08:01:00,
2013-02-11 03:11:00,26.0,19.0,30.25,SE,135,0.0,0.0,76,0.00,,,0.00,,2013-02-11 08:11:00,
2013-02-11 03:21:00,26.0,19.0,30.25,SE,135,0.0,0.0,76,0.00,,,0.00,,2013-02-11 08:21:00,
2013-02-11 03:32:00,26.0,19.0,30.25,SE,135,0.0,0.0,76,0.00,,,0.00,,2013-02-11 08:32:00,
2013-02-11 03:42:00,26.0,19.0,30.23,SSE,158,0.0,0.0,75,0.00,,,0.00,,2013-02-11 08:42:00,
2013-02-11 03:52:00,26.0,19.0,30.23,SSE,158,0.0,0.0,75,0.00,,,0.00,,2013-02-11 08:52:00,
2013-02-11 04:02:00,26.0,19.0,30.23,SE,135,0.0,0.0,75,0.00,,,0.00,,2013-02-11 09:02:00,
2013-02-11 04:21:00,26.0,19.0,30.22,SE,135,0.0,0.0,75,0.00,,,0.00,,2013-02-11 09:21:00,
2013-02-11 04:32:00,27.0,20.0,30.20,SSE,158,0.0,4.0,76,0.00,,,0.00,,2013-02-11 09:32:00,
2013-02-11 04:51:00,27.0,20.0,30.19,SSE,158,4.0,6.0,76,0.00,,,0.00,,2013-02-11 09:51:00,
2013-02-11 05:01:00,28.0,22.0,30.20,SSE,158,0.0,6.0,77,0.00,,,0.00,,2013-02-11 10:01:00,
2013-02-11 05:21:00,28.0,22.0,30.20,SE,135,0.0,2.0,78,0.00,,,0.00,,2013-02-11 10:21:00,
2013-02-11 05:32:00,29.0,23.0,30.21,SSE,158,0.0,4.0,79,0.00,,,0.00,,2013-02-11 10:32:00,
2013-02-11 05:42:00,29.0,23.0,30.21,SE,135,0.0,0.0,79,0.00,,,0.00,,2013-02-11 10:42:00,
2013-02-11 05:52:00,29.0,23.0,30.21,SE,135,0.0,0.0,79,0.00,,,0.00,,2013-02-11 10:52:00,
2013-02-11 06:02:00,29.0,24.0,30.19,SE,135,3.0,5.0,80,0.00,,,0.00,,2013-02-11 11:02:00,
2013-02-11 06:22:00,30.0,25.0,30.18,SSE,158,5.0,5.0,80,0.00,,,0.00,,2013-02-11 11:22:00,
2013-02-11 06:32:00,31.0,26.0,30.17,SSE,158,4.0,6.0,81,0.00,,,0.00,,2013-02-11 11:32:00,
2013-02-11 06:42:00,31.0,26.0,30.17,SE,135,0.0,2.0,81,0.00,,,0.00,,2013-02-11 11:42:00,
2013-02-11 06:52:00,31.0,26.0,30.17,SE,135,0.0,2.0,81,0.00,,,0.00,,2013-02-11 11:52:00,
2013-02-11 07:03:00,31.0,26.0,30.16,South,171,3.0,8.0,81,0.00,,,0.00,,2013-02-11 12:03:00,
2013-02-11 07:22:00,32.0,27.0,30.16,SSE,148,4.0,6.0,81,0.00,,,0.00,,2013-02-11 12:22:00,
2013-02-11 07:32:00,32.0,27.0,30.16,SSE,158,7.0,8.0,82,0.00,,,0.00,,2013-02-11 12:32:00,
2013-02-11 07:42:00,33.0,28.0,30.13,SSE,152,6.0,10.0,83,0.00,,,0.00,,2013-02-11 12:42:00,
2013-02-11 07:52:00,33.0,28.0,30.13,SSE,152,6.0,10.0,83,0.00,,,0.00,,2013-02-11 12:52:00,
2013-02-11 08:12:00,33.0,29.0,30.13,SSE,158,5.0,8.0,84,0.00,,,0.00,,2013-02-11 13:12:00,
2013-02-11 08:22:00,33.0,29.0,30.13,SSE,158,5.0,8.0,84,0.00,,,0.00,,2013-02-11 13:22:00,
2013-02-11 08:32:00,34.0,30.0,30.11,SSE,151,8.0,9.0,85,0.00,,,0.00,,2013-02-11 13:32:00,
2013-02-11 08:52:00,34.0,30.0,30.09,SSE,158,6.0,10.0,85,0.00,,,0.00,,2013-02-11 13:52:00,
2013-02-11 09:02:00,35.0,31.0,30.08,SSE,151,7.0,9.0,86,0.00,,,0.00,,2013-02-11 14:02:00,
2013-02-11 09:22:00,35.0,31.0,30.06,SSE,150,7.0,11.0,86,0.00,,,0.00,,2013-02-11 14:22:00,
2013-02-11 09:33:00,35.0,32.0,30.06,SSE,158,7.0,9.0,87,0.00,,,0.00,,2013-02-11 14:33:00,
2013-02-11 09:42:00,35.0,32.0,30.04,SSE,164,6.0,9.0,87,0.00,,,0.00,,2013-02-11 14:42:00,
2013-02-11 09:53:00,35.0,32.0,30.04,SSE,164,6.0,9.0,87,0.00,,,0.00,,2013-02-11 14:53:00,
2013-02-11 10:02:00,36.0,33.0,30.02,SSE,167,10.0,12.0,88,0.00,,,0.00,,2013-02-11 15:02:00,
2013-02-11 10:22:00,36.0,33.0,30.02,SSE,158,8.0,12.0,88,0.00,,,0.00,,2013-02-11 15:22:00,
2013-02-11 10:32:00,37.0,34.0,29.99,South,170,5.0,11.0,89,0.00,,,0.00,,2013-02-11 15:32:00,
2013-02-11 10:42:00,38.0,35.0,29.98,SSE,154,8.0,13.0,89,0.00,,,0.00,,2013-02-11 15:42:00,
2013-02-11 10:52:00,38.0,35.0,29.98,SSE,154,8.0,13.0,89,0.00,,,0.00,,2013-02-11 15:52:00,
2013-02-11 11:02:00,39.0,36.0,29.96,SSE,165,11.0,15.0,89,0.00,,,0.00,,2013-02-11 16:02:00,
2013-02-11 11:12:00,39.0,36.0,29.96,SSE,158,8.0,11.0,89,0.00,,,0.00,,2013-02-11 16:12:00,
2013-02-11 11:22:00,39.0,36.0,29.96,SSE,158,8.0,11.0,89,0.00,,,0.00,,2013-02-11 16:22:00,
2013-02-11 11:32:00,39.0,36.0,29.94,SSE,158,7.0,9.0,90,0.00,,,0.00,,2013-02-11 16:32:00,
2013-02-11 11:42:00,41.0,38.0,29.92,SSE,155,7.0,10.0,90,0.00,,,0.00,,2013-02-11 16:42:00,
2013-02-11 11:52:00,41.0,38.0,29.92,SSE,155,7.0,10.0,90,0.00,,,0.00,,2013-02-11 16:52:00,
2013-02-11 12:02:00,42.0,39.0,29.90,SE,144,10.0,14.0,90,0.00,,,0.00,,2013-02-11 17:02:00,
2013-02-11 12:11:00,42.0,39.0,29.90,SE,144,10.0,14.0,90,0.00,,,0.00,,2013-02-11 17:11:00,
2013-02-11 12:22:00,42.0,39.0,29.90,SSE,152,11.0,18.0,90,0.00,,,0.00,,2013-02-11 17:22:00,
2013-02-11 12:32:00,43.0,40.0,29.89,SE,143,9.0,12.0,90,0.00,,,0.00,,2013-02-11 17:32:00,
2013-02-11 12:42:00,43.0,40.0,29.89,SE,143,9.0,12.0,90,0.00,,,0.00,,2013-02-11 17:42:00,
2013-02-11 12:52:00,43.0,41.0,29.88,SSE,158,3.0,9.0,91,0.00,,,0.00,,2013-02-11 17:52:00,
2013-02-11 13:02:00,43.0,41.0,29.87,WSW,248,0.0,8.0,91,0.00,,,0.00,,2013-02-11 18:02:00,
2013-02-11 13:11:00,43.0,41.0,29.87,WSW,248,0.0,8.0,91,0.00,,,0.00,,2013-02-11 18:11:00,
2013-02-11 13:22:00,44.0,42.0,29.85,SE,144,4.0,9.0,91,0.00,,,0.00,,2013-02-11 18:22:00,
2013-02-11 13:32:00,44.0,42.0,29.85,SSE,158,0.0,4.0,91,0.00,,,0.00,,2013-02-11 18:32:00,
2013-02-11 13:42:00,44.0,42.0,29.82,SSE,158,0.0,4.0,91,0.00,,,0.00,,2013-02-11 18:42:00,
2013-02-11 13:53:00,44.0,42.0,29.82,SSE,158,0.0,4.0,91,0.00,,,0.00,,2013-02-11 18:53:00,
2013-02-11 14:02:00,44.0,42.0,29.81,SW,225,2.0,12.0,91,0.00,,,0.00,,2013-02-11 19:02:00,
2013-02-11 14:12:00,44.0,42.0,29.80,SSE,158,0.0,2.0,91,0.00,,,0.00,,2013-02-11 19:12:00,
2013-02-11 14:22:00,44.0,42.0,29.80,SSE,158,0.0,2.0,91,0.00,,,0.00,,2013-02-11 19:22:00,
2013-02-11 14:32:00,45.0,43.0,29.78,South,190,5.0,6.0,91,0.00,,,0.00,,2013-02-11 19:32:00,
2013-02-11 14:42:00,45.0,43.0,29.78,South,190,5.0,6.0,91,0.00,,,0.00,,2013-02-11 19:42:00,
2013-02-11 14:51:00,45.0,43.0,29.77,South,180,8.0,13.0,92,0.00,,,0.00,,2013-02-11 19:51:00,
2013-02-11 15:02:00,45.0,43.0,29.77,South,180,8.0,13.0,92,0.00,,,0.00,,2013-02-11 20:02:00,
2013-02-11 15:11:00,45.0,43.0,29.77,SW,225,0.0,6.0,92,0.00,,,0.00,,2013-02-11 20:11:00,
2013-02-11 15:22:00,45.0,43.0,29.77,SW,225,0.0,6.0,92,0.00,,,0.00,,2013-02-11 20:22:00,
2013-02-11 15:32:00,45.0,43.0,29.76,SW,226,2.0,5.0,92,0.00,,,0.00,,2013-02-11 20:32:00,
2013-02-11 15:42:00,45.0,43.0,29.75,South,180,0.0,0.0,92,0.00,,,0.00,,2013-02-11 20:42:00,
2013-02-11 15:52:00,45.0,43.0,29.75,South,180,0.0,0.0,92,0.00,,,0.00,,2013-02-11 20:52:00,
2013-02-11 16:02:00,45.0,43.0,29.75,West,270,0.0,0.0,92,0.00,,,0.00,,2013-02-11 21:02:00,
2013-02-11 16:12:00,45.0,43.0,29.73,SW,225,0.0,0.0,92,0.00,,,0.00,,2013-02-11 21:12:00,
2013-02-11 16:22:00,45.0,43.0,29.73,SW,225,0.0,0.0,92,0.00,,,0.00,,2013-02-11 21:22:00,
2013-02-11 16:32:00,44.0,42.0,29.73,West,270,0.0,2.0,92,0.00,,,0.00,,2013-02-11 21:32:00,
2013-02-11 16:42:00,44.0,42.0,29.72,WSW,248,1.0,1.0,92,0.00,,,0.00,,2013-02-11 21:42:00,
2013-02-11 16:52:00,44.0,42.0,29.72,WSW,248,1.0,1.0,92,0.00,,,0.00,,2013-02-11 21:52:00,
2013-02-11 17:02:00,44.0,42.0,29.71,WSW,248,0.0,2.0,92,0.00,,,0.00,,2013-02-11 22:02:00,
2013-02-11 17:12:00,44.0,42.0,29.71,SW,225,0.0,0.0,92,0.00,,,0.00,,2013-02-11 22:12:00,
2013-02-11 17:22:00,44.0,42.0,29.71,SW,225,0.0,0.0,92,0.00,,,0.00,,2013-02-11 22:22:00,
2013-02-11 17:32:00,44.0,42.0,29.71,SW,225,0.0,0.0,92,0.00,,,0.00,,2013-02-11 22:32:00,
2013-02-11 17:42:00,44.0,42.0,29.71,SW,225,0.0,0.0,92,0.00,,,0.00,,2013-02-11 22:42:00,
2013-02-11 17:52:00,44.0,42.0,29.70,SW,225,0.0,0.0,92,0.00,,,0.00,,2013-02-11 22:52:00,
2013-02-11 18:02:00,44.0,42.0,29.70,SW,225,0.0,0.0,92,0.00,,,0.00,,2013-02-11 23:02:00,
2013-02-11 18:12:00,44.0,42.0,29.70,SW,225,0.0,0.0,92,0.00,,,0.00,,2013-02-11 23:12:00,
2013-02-11 18:22:00,43.0,41.0,29.70,WSW,248,0.0,0.0,92,0.00,,,0.00,,2013-02-11 23:22:00,
2013-02-11 18:32:00,43.0,41.0,29.69,SW,225,0.0,0.0,92,0.00,,,0.00,,2013-02-11 23:32:00,
2013-02-11 18:42:00,43.0,41.0,29.69,SW,225,0.0,0.0,92,0.00,,,0.00,,2013-02-11 23:42:00,
2013-02-11 18:52:00,43.0,41.0,29.68,West,270,0.0,0.0,92,0.00,,,0.00,,2013-02-11 23:52:00,
2013-02-11 19:02:00,43.0,41.0,29.68,West,270,0.0,0.0,92,0.00,,,0.00,,2013-02-12 00:02:00,
2013-02-11 19:12:00,43.0,41.0,29.68,West,270,0.0,0.0,92,0.00,,,0.00,,2013-02-12 00:12:00,
2013-02-11 19:22:00,43.0,41.0,29.67,WSW,248,0.0,0.0,92,0.00,,,0.00,,2013-02-12 00:22:00,
2013-02-11 19:32:00,43.0,41.0,29.67,WSW,248,0.0,0.0,92,0.00,,,0.00,,2013-02-12 00:32:00,
2013-02-11 19:42:00,43.0,41.0,29.67,WSW,248,0.0,0.0,92,0.00,,,0.00,,2013-02-12 00:42:00,
2013-02-11 19:52:00,43.0,41.0,29.66,SW,225,0.0,0.0,92,0.00,,,0.00,,2013-02-12 00:52:00,
2013-02-11 20:02:00,43.0,41.0,29.65,WSW,248,0.0,0.0,92,0.00,,,0.00,,2013-02-12 01:02:00,
2013-02-11 20:11:00,43.0,41.0,29.65,WSW,248,0.0,0.0,92,0.00,,,0.00,,2013-02-12 01:11:00,
2013-02-11 20:22:00,43.0,41.0,29.64,SSE,158,0.0,0.0,92,0.00,,,0.00,,2013-02-12 01:22:00,
2013-02-11 20:32:00,43.0,41.0,29.64,South,180,0.0,0.0,92,0.00,,,0.00,,2013-02-12 01:32:00,
2013-02-11 20:42:00,43.0,41.0,29.64,South,180,0.0,0.0,92,0.00,,,0.00,,2013-02-12 01:42:00,
2013-02-11 20:52:00,43.0,41.0,29.64,South,180,0.0,0.0,92,0.00,,,0.00,,2013-02-12 01:52:00,
2013-02-11 21:02:00,43.0,41.0,29.64,South,180,0.0,0.0,92,0.00,,,0.00,,2013-02-12 02:02:00,
2013-02-11 21:12:00,43.0,41.0,29.64,South,180,0.0,0.0,92,0.00,,,0.00,,2013-02-12 02:12:00,
2013-02-11 21:22:00,43.0,41.0,29.64,South,180,0.0,0.0,92,0.00,,,0.00,,2013-02-12 02:22:00,